[[{"header":{"parameterUnit":"m.s-1","parameterCategory":1,"la1":30.2991,"la2":30.254,"lo1":-89.0895,"lo2":-89.0444,"dy":0.0017,"dx":0.0017,"nx":28,"ny":28,"refTime":"2023-09-11T03:00:00:Z","depth":0,"parameterNumber":2,"parameterNumberName":"U-component_of_WINDS"},"data":[0,0,0,0,0,0,0,0,0,0,0,0,0,0,0,0,0,0,0,0,0,0,0,0,0,0,0,0,0,0,0,0,0,0,0,0,0,0,0,0,0,0,0,0,0,0,0,0,0,0,0,0,0,0,0,0,0,0,-0.1344,-0.1343,0,-0.124,-0.1238,-0.1237,-0.1195,-0.1195,-0.1196,-0.1196,-0.1086,-0.1083,-0.108,0,0,0,0,0,0,0,0,0,0,0,0,0,-0.1507,-0.1504,-0.1344,-0.1343,-0.1342,-0.124,-0.1238,-0.1237,-0.1195,-0.1195,-0.1196,-0.1196,-0.1087,-0.1083,-0.1079,0,0,0,0,0,0,0,0,0,0,0,0,0,-0.1423,-0.1503,-0.1345,-0.1309,-0.1304,-0.124,-0.1238,-0.1237,-0.1195,-0.1195,-0.1196,-0.1196,-0.1088,-0.1084,-0.1079,-0.1042,0,0,-0.1064,-0.1062,0,0,0,0,0,0,0,0,-0.1427,-0.1417,-0.1315,-0.1311,-0.1306,-0.1231,-0.1255,-0.1171,-0.1195,-0.1236,-0.1196,-0.1196,-0.1134,-0.1125,-0.1105,-0.1037,-0.1032,-0.1064,-0.1061,-0.1059,-0.1058,0,0,0,0,0,0,0,-0.1433,-0.1421,-0.1303,-0.1314,-0.1308,-0.1297,-0.1286,-0.1239,-0.1184,-0.1233,-0.123,-0.1218,-0.1131,-0.1109,-0.1102,-0.103,-0.1064,-0.106,-0.1057,-0.1055,-0.0928,-0.0928,0,0,0,0,0,0,-0.1445,-0.1426,-0.1306,-0.13,-0.1369,-0.1294,-0.1281,-0.1255,-0.1184,-0.1174,-0.1218,-0.1216,-0.1117,-0.1107,-0.1098,-0.105,-0.1059,-0.1055,-0.1052,-0.0929,-0.0928,-0.0927,0,0,0,0,0,0,-0.1449,-0.1435,-0.131,-0.1362,-0.1345,-0.1291,-0.1261,-0.1252,-0.123,-0.1173,-0.1163,-0.1206,-0.1117,-0.1104,-0.1056,-0.1046,-0.1052,-0.1048,-0.0929,-0.0928,-0.0928,-0.0955,0,0,0,0,0,0,-0.1454,-0.1437,-0.1422,-0.1362,-0.1343,-0.1271,-0.1261,-0.125,-0.1223,-0.122,-0.1159,-0.1149,-0.1116,-0.1064,-0.1052,-0.1039,-0.1044,-0.093,-0.0929,-0.0928,-0.0955,-0.0955,-0.0956,0,0,0,0,0,-0.146,-0.1433,-0.1422,-0.1407,-0.1324,-0.1271,-0.126,-0.1223,-0.1222,-0.1207,-0.117,-0.1151,-0.1049,-0.1059,-0.1045,-0.1031,-0.093,-0.0929,-0.0928,-0.0955,-0.0955,-0.0956,0,0,0,0,0,0,-0.1492,-0.1424,-0.1411,-0.1364,-0.1324,-0.1264,-0.1243,-0.1225,-0.1183,-0.1182,-0.1139,-0.1125,-0.1081,-0.1051,-0.1064,-0.0993,-0.0988,-0.0984,-0.1013,-0.1013,-0.1014,-0.1022,-0.104,0,0,0,0,0,-0.1494,-0.1457,-0.14,-0.1364,-0.1345,-0.1298,-0.1273,-0.1249,-0.1205,-0.1188,-0.1147,-0.1105,-0.1064,-0.1037,-0.0995,-0.0951,-0.0937,-0.0934,-0.0935,-0.0936,-0.0932,-0.0908,-0.0906,-0.0923,-0.0924,-0.0924,0,0,-0.1497,-0.1455,-0.1435,-0.137,-0.1335,-0.1298,-0.1284,-0.1244,-0.1216,-0.1181,-0.1134,-0.1104,-0.1053,-0.1007,-0.0985,-0.0981,-0.0925,-0.0934,-0.0935,-0.0931,-0.0906,-0.0905,-0.0903,-0.0923,-0.0923,-0.0923,0,0,-0.1483,-0.1448,-0.1415,-0.1382,-0.1331,-0.13,-0.1292,-0.1236,-0.1214,-0.1167,-0.114,-0.1106,-0.1035,-0.1001,-0.0974,-0.095,-0.0931,-0.0938,-0.094,-0.0916,-0.0915,-0.0913,-0.0905,-0.0903,-0.0935,-0.0935,-0.0935,0,-0.1493,-0.1436,-0.14,-0.1363,-0.1335,-0.1304,-0.127,-0.1239,-0.1177,-0.1158,-0.1156,-0.1068,-0.1031,-0.0977,-0.0972,-0.0951,-0.0941,-0.0944,-0.0918,-0.0916,-0.0914,-0.0906,-0.0903,-0.0936,-0.0936,-0.0936,-0.0936,0,-0.1451,-0.1412,-0.1392,-0.1334,-0.1304,-0.1269,-0.1227,-0.1202,-0.1181,-0.1151,-0.1103,-0.1059,-0.1009,-0.0994,-0.0973,-0.0938,-0.0937,-0.0927,-0.0921,-0.0915,-0.0906,-0.0903,-0.0938,-0.0938,-0.0937,-0.0937,0,0,-0.1453,-0.1377,-0.137,-0.1344,-0.1287,-0.1256,-0.122,-0.1172,-0.1151,-0.111,-0.1079,-0.1021,-0.1012,-0.0981,-0.0956,-0.0935,-0.092,-0.0928,-0.0926,-0.0928,-0.088,-0.0888,-0.0884,-0.0908,-0.0907,-0.0907,-0.0884,0,-0.1431,-0.1366,-0.1333,-0.1281,-0.1246,-0.1216,-0.1185,-0.1146,-0.1118,-0.1083,-0.1051,-0.1011,-0.1002,-0.0984,-0.0962,-0.0927,-0.091,-0.0928,-0.0878,-0.0876,-0.0891,-0.088,-0.0887,-0.0868,-0.088,-0.088,-0.0879,0,-0.1397,-0.1358,-0.1303,-0.1252,-0.1235,-0.1208,-0.1162,-0.1129,-0.1086,-0.1066,-0.1034,-0.101,-0.0971,-0.0969,-0.0915,-0.0928,-0.0906,-0.0886,-0.0884,-0.0878,-0.0877,-0.0873,-0.0861,-0.0858,-0.0874,-0.0874,-0.0874,0,-0.1405,-0.1338,-0.1297,-0.1276,-0.1214,-0.1196,-0.1169,-0.1126,-0.11,-0.106,-0.1042,-0.0998,-0.0974,-0.094,-0.0905,-0.0907,-0.0854,-0.085,-0.0837,-0.0838,-0.0826,-0.0827,-0.0811,-0.0813,-0.0813,-0.0813,-0.0813,0,-0.1384,-0.1352,-0.13,-0.1274,-0.1238,-0.1201,-0.1165,-0.1136,-0.1098,-0.1067,-0.1039,-0.101,-0.0965,-0.0931,-0.0903,-0.0863,-0.0852,-0.0835,-0.0828,-0.0837,-0.0839,-0.0821,-0.0822,-0.0812,-0.0812,-0.0812,-0.0813,0,-0.1385,-0.1349,-0.1302,-0.1249,-0.1235,-0.121,-0.1164,-0.1139,-0.111,-0.107,-0.1059,-0.1013,-0.0971,-0.0933,-0.0877,-0.0858,-0.0818,-0.0809,-0.0833,-0.0829,-0.0818,-0.082,-0.0789,-0.0783,-0.079,-0.079,-0.079,0,-0.1374,-0.1349,-0.1293,-0.1271,-0.1245,-0.1209,-0.1183,-0.1146,-0.112,-0.1069,-0.105,-0.1007,-0.097,-0.0904,-0.0866,-0.0823,-0.0813,-0.0805,-0.0806,-0.0817,-0.0813,-0.0814,-0.0812,-0.0805,-0.0805,-0.0805,-0.0805,0,-0.1359,-0.1343,-0.1306,-0.1264,-0.1234,-0.1199,-0.1162,-0.1145,-0.1102,-0.1074,-0.1032,-0.1003,-0.0947,-0.0904,-0.0858,-0.083,-0.0811,-0.0806,-0.0801,-0.0809,-0.0825,-0.0816,-0.0834,-0.0806,-0.0806,-0.0806,-0.0806,-0.0806,-0.1353,-0.133,-0.1288,-0.1249,-0.1218,-0.1185,-0.1159,-0.1128,-0.1092,-0.1044,-0.1024,-0.0982,-0.094,-0.0875,-0.0848,-0.0814,-0.081,-0.0802,-0.08,-0.0799,-0.0801,-0.0831,-0.0806,-0.0805,-0.0805,-0.0805,-0.0805,0,-0.1336,-0.1308,-0.1273,-0.1224,-0.1193,-0.1179,-0.1139,-0.1114,-0.1077,-0.104,-0.1005,-0.0957,-0.0916,-0.0875,-0.0832,-0.0812,-0.0802,-0.0802,-0.0803,-0.0797,-0.0807,-0.0816,-0.0811,-0.0811,-0.0811,-0.0811,-0.0811,-0.0811,-0.1324,-0.1284,-0.1263,-0.1208,-0.118,-0.1139,-0.1117,-0.1087,-0.1057,-0.1005,-0.0972,-0.0946,-0.0907,-0.0861,-0.0823,-0.0812,-0.0798,-0.08,-0.0787,-0.0796,-0.0796,-0.0796,-0.0804,-0.0797,-0.0797,-0.078,-0.0779,-0.0779]},{"header":{"parameterUnit":"m.s-1","parameterCategory":1,"la1":30.2991,"la2":30.254,"lo1":-89.0895,"lo2":-89.0444,"dy":0.0017,"dx":0.0017,"nx":28,"ny":28,"refTime":"2023-09-11T03:00:00:Z","depth":0,"parameterNumber":3,"parameterNumberName":"V-component_of_WINDS"},"data":[0,0,0,0,0,0,0,0,0,0,0,0,0,0,0,0,0,0,0,0,0,0,0,0,0,0,0,0,0,0,0,0,0,0,0,0,0,0,0,0,0,0,0,0,0,0,0,0,0,0,0,0,0,0,0,0,0,0,2.9963,2.9963,0,2.9928,2.9927,2.9927,2.994,2.9941,2.9942,2.9943,2.9901,2.99,2.9898,0,0,0,0,0,0,0,0,0,0,0,0,0,3.0037,3.0035,2.9963,2.9963,2.9962,2.9928,2.9927,2.9927,2.994,2.9941,2.9942,2.9943,2.9902,2.99,2.9898,0,0,0,0,0,0,0,0,0,0,0,0,0,3.0003,3.0035,2.9963,2.9965,2.9965,2.9928,2.9927,2.9926,2.994,2.9941,2.9943,2.9944,2.9903,2.99,2.9897,2.9855,0,0,2.9889,2.9887,0,0,0,0,0,0,0,0,3.0005,3.0001,2.9965,2.9965,2.9965,2.994,2.9938,2.9902,2.994,2.9949,2.9943,2.9944,2.9913,2.9909,2.99,2.9853,2.9851,2.9888,2.9887,2.9885,2.9885,0,0,0,0,0,0,0,3.0007,3.0002,2.9949,2.9965,2.9964,2.9966,2.9962,2.9931,2.9924,2.9949,2.9949,2.9945,2.9913,2.9902,2.9899,2.985,2.9888,2.9886,2.9884,2.9883,2.9763,2.9762,0,0,0,0,0,0,3.0011,3.0004,2.995,2.9948,2.9989,2.9963,2.9959,2.9946,2.9925,2.9923,2.9944,2.9946,2.9907,2.9902,2.9897,2.9844,2.9885,2.9883,2.9881,2.9765,2.9763,2.9761,0,0,0,0,0,0,3.0012,3.0006,2.9951,2.9976,2.9969,2.9961,2.9946,2.9945,2.9935,2.9922,2.992,2.9935,2.9907,2.9901,2.9865,2.9843,2.9881,2.9879,2.9766,2.9764,2.9762,2.9738,0,0,0,0,0,0,3.0014,3.0006,2.9992,2.9976,2.9968,2.9921,2.9945,2.9943,2.993,2.9932,2.9913,2.991,2.9908,2.9869,2.9862,2.9839,2.9877,2.9768,2.9765,2.9763,2.974,2.9735,2.973,0,0,0,0,0,3.0017,2.9986,2.9991,2.9984,2.995,2.992,2.9915,2.9915,2.9929,2.9912,2.9904,2.9911,2.9847,2.9865,2.9857,2.9834,2.977,2.9766,2.9763,2.9743,2.9736,2.973,0,0,0,0,0,0,2.9998,2.9984,2.9989,2.9952,2.9937,2.9923,2.9902,2.9908,2.9887,2.989,2.9888,2.9884,2.9845,2.9836,2.9857,2.979,2.981,2.9805,2.9797,2.979,2.9785,2.9787,2.9874,0,0,0,0,0,2.999,2.9968,2.9957,2.9925,2.9917,2.9911,2.9898,2.9899,2.9883,2.9876,2.9865,2.9847,2.9822,2.9806,2.9783,2.974,2.9734,2.9719,2.9714,2.971,2.9705,2.9678,2.967,2.975,2.975,2.975,0,0,2.9972,2.9961,2.9948,2.9921,2.9909,2.9885,2.9906,2.988,2.9861,2.9871,2.9836,2.9827,2.9807,2.9766,2.9747,2.9757,2.9681,2.9706,2.9702,2.9699,2.9673,2.9666,2.9659,2.9748,2.9748,2.9749,0,0,2.9926,2.9918,2.9889,2.9877,2.986,2.9856,2.9849,2.9833,2.9827,2.9792,2.9799,2.9776,2.9734,2.9719,2.9706,2.9653,2.9658,2.9646,2.9618,2.9592,2.9585,2.9579,2.9558,2.955,2.9641,2.9641,2.9641,0,2.9906,2.9871,2.9873,2.9847,2.9833,2.9843,2.9812,2.98,2.9775,2.9765,2.9777,2.9723,2.9711,2.9665,2.9652,2.9642,2.9631,2.9647,2.9586,2.9581,2.9575,2.9554,2.9547,2.9639,2.9639,2.964,2.964,0,2.9845,2.9821,2.98,2.9777,2.9761,2.9733,2.9728,2.9712,2.9713,2.9707,2.9669,2.9655,2.9628,2.9617,2.9619,2.957,2.9577,2.9588,2.9607,2.9566,2.9546,2.9538,2.9637,2.9638,2.9638,2.9638,0,0,2.9787,2.9765,2.9756,2.9745,2.9726,2.9706,2.9677,2.9652,2.9636,2.9619,2.9592,2.9556,2.9566,2.955,2.955,2.9527,2.9482,2.954,2.954,2.9528,2.9425,2.9415,2.9406,2.9486,2.9485,2.9484,2.9425,0,2.9738,2.9688,2.9688,2.9641,2.9617,2.9625,2.9599,2.9583,2.9577,2.9553,2.9545,2.9519,2.9535,2.9525,2.9503,2.9493,2.9461,2.9497,2.9458,2.9457,2.9461,2.9396,2.9386,2.9332,2.9418,2.9417,2.9416,0,2.9674,2.9655,2.9606,2.9588,2.9578,2.9555,2.9531,2.951,2.9491,2.9487,2.947,2.9472,2.9439,2.9462,2.9415,2.9439,2.9423,2.9415,2.9413,2.9407,2.9432,2.9386,2.9315,2.9305,2.9404,2.9405,2.9406,0,2.9633,2.9595,2.956,2.955,2.953,2.9512,2.9503,2.9486,2.9469,2.9448,2.9436,2.9411,2.9396,2.9375,2.9369,2.9386,2.932,2.9343,2.9314,2.9313,2.9298,2.9298,2.922,2.9292,2.9292,2.9292,2.9292,0,2.9577,2.9545,2.9541,2.9519,2.9483,2.9483,2.9447,2.9438,2.9422,2.9397,2.9403,2.9378,2.9373,2.9347,2.9342,2.9302,2.9296,2.929,2.9288,2.9288,2.9288,2.9275,2.9278,2.929,2.929,2.9291,2.9291,0,2.9524,2.952,2.9481,2.9465,2.946,2.9434,2.9419,2.9397,2.9391,2.9358,2.935,2.9339,2.9309,2.9301,2.9265,2.9261,2.9213,2.9216,2.9219,2.9219,2.9188,2.919,2.9097,2.9084,2.9167,2.9166,2.9165,0,2.9487,2.9463,2.9444,2.9428,2.9418,2.9393,2.9376,2.9374,2.9357,2.9332,2.9312,2.9282,2.9258,2.9208,2.9195,2.9166,2.9167,2.9137,2.9163,2.9162,2.9163,2.9164,2.916,2.9131,2.913,2.913,2.9129,0,2.9421,2.942,2.9398,2.9373,2.9354,2.9335,2.9316,2.9302,2.9297,2.9277,2.9246,2.9227,2.919,2.9158,2.9129,2.9116,2.912,2.9121,2.9112,2.911,2.9112,2.9107,2.9203,2.9123,2.9123,2.9124,2.9124,2.9124,2.9373,2.9352,2.9335,2.9308,2.9294,2.9276,2.9254,2.9245,2.922,2.919,2.919,2.9155,2.9134,2.9095,2.9081,2.9052,2.9061,2.9049,2.9045,2.9041,2.9037,2.9119,2.9047,2.9047,2.9047,2.9047,2.9048,0,2.9306,2.9295,2.9271,2.9245,2.9223,2.9232,2.9211,2.9191,2.9162,2.9143,2.9119,2.9082,2.9051,2.9036,2.9005,2.8985,2.8985,2.8976,2.8976,2.8973,2.9033,2.9042,2.8976,2.8976,2.8976,2.8976,2.8976,2.8976,2.9268,2.923,2.9227,2.9182,2.9171,2.9138,2.9125,2.9107,2.9092,2.9051,2.9026,2.9017,2.8998,2.8966,2.8937,2.8933,2.892,2.8909,2.8906,2.8962,2.8969,2.8976,2.8984,2.8907,2.8907,2.8848,2.8847,2.8847]}]]